TimeEST,TemperatureF,Dew PointF,Humidity,Sea Level PressureIn,VisibilityMPH,Wind Direction,Wind SpeedMPH,Gust SpeedMPH,PrecipitationIn,Events,Conditions,WindDirDegrees,DateUTC
12:15 AM,32.0,26.6,80,29.79,10.0,WSW,5.8,-,N/A,,Overcast,240,2013-01-17 05:15:00
12:35 AM,32.0,26.6,80,29.80,10.0,WSW,3.5,-,N/A,,Overcast,250,2013-01-17 05:35:00
12:55 AM,32.0,26.6,80,29.80,9.0,WSW,6.9,-,N/A,,Overcast,250,2013-01-17 05:55:00
1:15 AM,32.0,24.8,75,29.81,10.0,SW,10.4,-,N/A,,Overcast,220,2013-01-17 06:15:00
1:35 AM,32.0,26.6,80,29.81,10.0,West,6.9,-,N/A,,Overcast,260,2013-01-17 06:35:00
2:15 AM,32.0,26.6,80,29.82,10.0,NE,5.8,-,N/A,,Overcast,50,2013-01-17 07:15:00
2:35 AM,32.0,24.8,75,29.81,10.0,West,4.6,-,N/A,,Overcast,270,2013-01-17 07:35:00
2:55 AM,30.2,24.8,80,29.80,10.0,WNW,3.5,-,N/A,,Overcast,290,2013-01-17 07:55:00
3:35 AM,32.0,24.8,75,29.80,10.0,Calm,Calm,-,N/A,,Overcast,0,2013-01-17 08:35:00
3:55 AM,30.2,24.8,80,29.80,10.0,ENE,4.6,-,N/A,,Overcast,60,2013-01-17 08:55:00
4:35 AM,32.0,23.0,69,29.80,10.0,WSW,6.9,-,N/A,,Overcast,240,2013-01-17 09:35:00
4:55 AM,32.0,23.0,69,29.81,10.0,WSW,4.6,-,N/A,,Overcast,240,2013-01-17 09:55:00
5:15 AM,32.0,24.8,75,29.81,10.0,Calm,Calm,-,N/A,,Overcast,0,2013-01-17 10:15:00
5:35 AM,32.0,21.2,64,29.82,10.0,Calm,Calm,-,N/A,,Overcast,0,2013-01-17 10:35:00
5:55 AM,32.0,23.0,69,29.82,10.0,SW,3.5,-,N/A,,Overcast,230,2013-01-17 10:55:00
6:15 AM,32.0,23.0,69,29.82,10.0,WNW,4.6,-,N/A,,Overcast,300,2013-01-17 11:15:00
6:35 AM,32.0,23.0,69,29.83,10.0,WSW,10.4,16.1,N/A,,Overcast,250,2013-01-17 11:35:00
6:55 AM,32.0,23.0,69,29.84,10.0,WSW,5.8,-,N/A,,Mostly Cloudy,250,2013-01-17 11:55:00
7:15 AM,32.0,23.0,69,29.85,10.0,SW,9.2,-,N/A,,Overcast,230,2013-01-17 12:15:00
7:35 AM,32.0,23.0,69,29.86,10.0,WSW,5.8,16.1,N/A,,Overcast,250,2013-01-17 12:35:00
7:55 AM,32.0,24.8,75,29.86,10.0,WSW,10.4,16.1,N/A,,Overcast,240,2013-01-17 12:55:00
8:15 AM,33.8,23.0,65,29.88,10.0,SW,10.4,-,N/A,,Overcast,230,2013-01-17 13:15:00
8:35 AM,33.8,24.8,70,29.89,7.0,WSW,8.1,18.4,N/A,,Overcast,250,2013-01-17 13:35:00
8:55 AM,32.0,26.6,80,29.89,2.5,WSW,10.4,-,N/A,,Overcast,240,2013-01-17 13:55:00
9:35 AM,32.0,26.6,80,29.91,5.0,West,10.4,18.4,N/A,,Overcast,260,2013-01-17 14:35:00
9:55 AM,33.8,26.6,75,29.91,5.0,WSW,11.5,17.3,N/A,,Overcast,250,2013-01-17 14:55:00
10:15 AM,33.8,26.6,75,29.91,10.0,WSW,12.7,20.7,N/A,,Mostly Cloudy,250,2013-01-17 15:15:00
10:35 AM,33.8,24.8,70,29.92,10.0,West,11.5,20.7,N/A,,Mostly Cloudy,270,2013-01-17 15:35:00
10:55 AM,33.8,24.8,70,29.92,10.0,West,10.4,19.6,N/A,,Scattered Clouds,280,2013-01-17 15:55:00
11:15 AM,33.8,24.8,70,29.93,10.0,WNW,12.7,21.9,N/A,,Mostly Cloudy,290,2013-01-17 16:15:00
12:15 PM,28.4,19.4,69,29.97,10.0,NNW,9.2,17.3,N/A,,Overcast,330,2013-01-17 17:15:00
12:35 PM,26.6,15.8,64,29.99,10.0,NNW,6.9,-,N/A,,Overcast,330,2013-01-17 17:35:00
12:55 PM,26.6,15.8,64,30.00,10.0,NW,6.9,-,N/A,,Overcast,320,2013-01-17 17:55:00
1:15 PM,28.4,10.4,47,30.00,10.0,NW,16.1,23.0,N/A,,Overcast,310,2013-01-17 18:15:00
1:35 PM,26.6,8.6,47,30.00,10.0,NW,10.4,17.3,N/A,,Mostly Cloudy,310,2013-01-17 18:35:00
1:55 PM,26.6,8.6,47,30.00,10.0,NW,10.4,23.0,N/A,,Partly Cloudy,310,2013-01-17 18:55:00
2:15 PM,26.6,6.8,43,30.01,10.0,NW,11.5,18.4,N/A,,Partly Cloudy,310,2013-01-17 19:15:00
2:55 PM,24.8,6.8,46,30.03,10.0,North,9.2,-,N/A,,Overcast,360,2013-01-17 19:55:00
3:15 PM,23.0,6.8,50,30.03,10.0,NNE,11.5,-,N/A,,Overcast,20,2013-01-17 20:15:00
3:35 PM,21.2,6.8,54,30.05,10.0,North,10.4,-,N/A,,Overcast,360,2013-01-17 20:35:00
3:55 PM,21.2,6.8,54,30.05,10.0,North,11.5,-,N/A,,Overcast,10,2013-01-17 20:55:00
4:15 PM,21.2,5.0,50,30.05,10.0,NNE,11.5,-,N/A,,Overcast,30,2013-01-17 21:15:00
4:35 PM,21.2,3.2,46,30.05,10.0,NNW,6.9,-,N/A,,Overcast,340,2013-01-17 21:35:00
5:35 PM,17.6,1.4,49,30.07,10.0,NNW,5.8,-,N/A,,Clear,330,2013-01-17 22:35:00
5:55 PM,17.6,1.4,49,30.07,10.0,NNW,6.9,-,N/A,,Clear,340,2013-01-17 22:55:00
6:15 PM,15.8,1.4,53,30.08,10.0,NNW,8.1,-,N/A,,Clear,330,2013-01-17 23:15:00
6:35 PM,15.8,1.4,53,30.09,10.0,North,6.9,-,N/A,,Clear,350,2013-01-17 23:35:00
6:55 PM,15.8,1.4,53,30.10,10.0,North,9.2,-,N/A,,Clear,10,2013-01-17 23:55:00
7:15 PM,14.0,1.4,57,30.11,10.0,North,5.8,-,N/A,,Clear,360,2013-01-18 00:15:00
7:35 PM,14.0,1.4,57,30.11,10.0,North,8.1,-,N/A,,Clear,10,2013-01-18 00:35:00
7:55 PM,14.0,1.4,57,30.12,10.0,NNW,5.8,-,N/A,,Clear,330,2013-01-18 00:55:00
8:15 PM,14.0,1.4,57,30.12,10.0,North,6.9,-,N/A,,Partly Cloudy,350,2013-01-18 01:15:00
8:35 PM,12.2,1.4,62,30.11,10.0,North,4.6,-,N/A,,Scattered Clouds,350,2013-01-18 01:35:00
8:55 PM,12.2,1.4,62,30.10,10.0,North,5.8,-,N/A,,Clear,350,2013-01-18 01:55:00
9:15 PM,12.2,-0.4,57,30.11,10.0,NNW,4.6,-,N/A,,Clear,340,2013-01-18 02:15:00
9:55 PM,12.2,1.4,62,30.10,10.0,North,5.8,-,N/A,,Clear,360,2013-01-18 02:55:00
10:15 PM,12.2,-0.4,57,30.09,10.0,North,5.8,-,N/A,,Scattered Clouds,350,2013-01-18 03:15:00
10:35 PM,12.2,1.4,62,30.08,10.0,NNW,6.9,-,N/A,,Mostly Cloudy,330,2013-01-18 03:35:00
10:55 PM,10.4,-0.4,62,30.07,10.0,NNW,8.1,-,N/A,,Overcast,340,2013-01-18 03:55:00
11:15 PM,10.4,1.4,67,30.08,10.0,NNW,6.9,-,N/A,,Overcast,340,2013-01-18 04:15:00
11:35 PM,10.4,1.4,67,30.10,10.0,North,6.9,-,N/A,,Overcast,360,2013-01-18 04:35:00
11:55 PM,10.4,-0.4,62,30.07,10.0,NW,6.9,-,N/A,,Overcast,320,2013-01-18 04:55:00